Back to catalog

STARLINK-4023

AliveCommunicationsVLEO
NORAD 53135·PAYLOAD·🇺🇸 United States

Launched Jul 17, 2022 from Cape Canaveral Space Force Station

Loading…

Next Passes (next 24 hours)

TLE

FreshSource: CelesTrak SupGP

Epoch: Sep 14, 2026, 21:52 UTC

1 53135C 22083D   26257.91159722  .00006721  00000+0  19861-3 0  2570
2 53135  53.1595  29.4973 0001218  75.8200  88.6693 15.34383551    14

Track STARLINK-4023 in real time with AllMySat

Download on the App Store